ITY1530 LIML-LIEE

Flight info

Callsign ITY1530
Flight time N/A
Altitude 37000
Route TOVSA7A/35 ITCAP DCT OTMUV DCT UNITA DCT ERTEV DCT TORTU DCT OKROK DCT AJO DCT CORSI DCT UPDUT DCT INDUM DCT MINKA DCT ORVEX DCT BOLOT M858 RAMEN M732 KOVAS
Aircraft A319/M-SDE3FGHIRWY/LB1

Departure

Time N/A
Airport Milano Linate Airport (LIML)

Arrival

Time 2026-05-03 20:45
Airport Cagliari Elmas Airport (LIEE)
Time Latitude Longitude Altitude Speed Heading
2026-05-03 20:15 42.00818 8.80108 37097 ft 424 kts 188°
2026-05-03 20:15 41.94934 8.79456 37106 ft 424 kts 188°
2026-05-03 20:16 41.89057 8.78800 37115 ft 424 kts 188°
2026-05-03 20:16 41.83174 8.78141 37112 ft 424 kts 188°
2026-05-03 20:17 41.77298 8.77535 37121 ft 425 kts 185°
2026-05-03 20:17 41.71359 8.77960 37122 ft 427 kts 180°
2026-05-03 20:18 41.65472 8.78473 37122 ft 427 kts 180°
2026-05-03 20:18 41.59545 8.78978 37121 ft 427 kts 180°
2026-05-03 20:19 41.53612 8.79487 37127 ft 427 kts 180°
2026-05-03 20:19 41.47670 8.80005 37120 ft 427 kts 180°
2026-05-03 20:20 41.41737 8.80503 37111 ft 427 kts 180°
2026-05-03 20:20 41.35797 8.81000 37115 ft 428 kts 180°
2026-05-03 20:21 41.29847 8.81547 37120 ft 428 kts 179°
2026-05-03 20:21 41.23909 8.82221 37123 ft 429 kts 179°
2026-05-03 20:22 41.17964 8.82920 37115 ft 429 kts 179°
2026-05-03 20:22 41.12012 8.83602 37117 ft 429 kts 179°
2026-05-03 20:23 41.06093 8.84252 37117 ft 429 kts 179°
2026-05-03 20:23 41.00130 8.84903 36496 ft 434 kts 179°
2026-05-03 20:23 40.97076 8.85214 35315 ft 445 kts 180°
2026-05-03 20:24 40.93961 8.85403 34356 ft 450 kts 181°
2026-05-03 20:24 40.90824 8.85489 33450 ft 452 kts 182°
2026-05-03 20:24 40.87688 8.85517 32853 ft 447 kts 182°
2026-05-03 20:24 40.84599 8.85532 32281 ft 441 kts 182°
2026-05-03 20:25 40.81545 8.85564 31705 ft 437 kts 181°
2026-05-03 20:25 40.78521 8.85690 31116 ft 433 kts 180°
2026-05-03 20:25 40.75523 8.85916 30562 ft 429 kts 179°
2026-05-03 20:25 40.72552 8.86200 29975 ft 426 kts 178°
2026-05-03 20:26 40.69608 8.86501 29401 ft 422 kts 178°
2026-05-03 20:26 40.66698 8.86794 28868 ft 417 kts 178°
2026-05-03 20:26 40.63826 8.87065 28326 ft 412 kts 179°
2026-05-03 20:26 40.60982 8.87314 27802 ft 407 kts 179°
2026-05-03 20:27 40.58165 8.87547 27285 ft 403 kts 179°
2026-05-03 20:27 40.55376 8.87771 26783 ft 399 kts 180°
2026-05-03 20:27 40.52624 8.87990 26297 ft 396 kts 180°
2026-05-03 20:27 40.49923 8.88208 25833 ft 393 kts 179°
2026-05-03 20:28 40.47203 8.88432 25363 ft 390 kts 179°
2026-05-03 20:28 40.44501 8.88657 24905 ft 388 kts 180°
2026-05-03 20:28 40.41808 8.88880 24442 ft 387 kts 180°
2026-05-03 20:28 40.39133 8.89100 23985 ft 385 kts 180°
2026-05-03 20:29 40.36461 8.89318 23485 ft 383 kts 180°
2026-05-03 20:29 40.33807 8.89536 22997 ft 380 kts 179°
2026-05-03 20:29 40.31175 8.89755 22535 ft 377 kts 179°
2026-05-03 20:29 40.28569 8.89972 22068 ft 374 kts 179°
2026-05-03 20:30 40.25985 8.90188 21606 ft 371 kts 179°
2026-05-03 20:30 40.23421 8.90403 21134 ft 368 kts 179°
2026-05-03 20:30 40.20875 8.90613 20663 ft 365 kts 179°
2026-05-03 20:30 40.18344 8.90818 20189 ft 363 kts 179°
2026-05-03 20:31 40.15830 8.91019 19715 ft 361 kts 179°
2026-05-03 20:31 40.13331 8.91223 19248 ft 359 kts 179°
2026-05-03 20:31 40.10847 8.91428 18780 ft 357 kts 179°
2026-05-03 20:31 40.08368 8.91637 18298 ft 356 kts 179°
2026-05-03 20:32 40.05909 8.91843 17815 ft 353 kts 179°
2026-05-03 20:32 40.03465 8.92046 17363 ft 349 kts 179°
2026-05-03 20:32 40.01086 8.92240 16921 ft 346 kts 179°
2026-05-03 20:32 39.98692 8.92435 16479 ft 343 kts 178°
2026-05-03 20:33 39.96314 8.92628 16046 ft 340 kts 178°
2026-05-03 20:33 39.93959 8.92819 15618 ft 337 kts 178°
2026-05-03 20:33 39.91626 8.93005 15187 ft 335 kts 178°
2026-05-03 20:33 39.89309 8.93189 14757 ft 332 kts 177°
2026-05-03 20:34 39.87009 8.93373 14334 ft 329 kts 177°
2026-05-03 20:34 39.84728 8.93559 13904 ft 327 kts 176°
2026-05-03 20:34 39.82467 8.93764 13437 ft 324 kts 174°
2026-05-03 20:34 39.80282 8.94413 13020 ft 321 kts 161°
2026-05-03 20:35 39.78279 8.95667 12596 ft 319 kts 149°
2026-05-03 20:35 39.76425 8.97222 12169 ft 316 kts 149°
2026-05-03 20:35 39.74581 8.98759 11740 ft 313 kts 149°
2026-05-03 20:35 39.72752 9.00277 11305 ft 311 kts 149°
2026-05-03 20:36 39.70929 9.01782 10878 ft 309 kts 149°
2026-05-03 20:36 39.69118 9.03276 10457 ft 308 kts 149°
2026-05-03 20:36 39.67368 9.04723 10300 ft 296 kts 150°
2026-05-03 20:36 39.65632 9.06074 10116 ft 286 kts 156°
2026-05-03 20:37 39.63786 9.06892 9897 ft 279 kts 169°
2026-05-03 20:37 39.61834 9.07149 9171 ft 287 kts 180°
2026-05-03 20:37 39.59800 9.07183 8399 ft 297 kts 180°
2026-05-03 20:37 39.57730 9.07219 7940 ft 296 kts 180°
2026-05-03 20:38 39.55709 9.07262 7737 ft 285 kts 180°
2026-05-03 20:38 39.53775 9.07108 7605 ft 272 kts 193°
2026-05-03 20:38 39.52055 9.06236 7309 ft 266 kts 211°
2026-05-03 20:38 39.50542 9.04844 6892 ft 266 kts 216°
2026-05-03 20:39 39.49089 9.03469 6852 ft 250 kts 216°
2026-05-03 20:39 39.47700 9.02156 6595 ft 246 kts 216°
2026-05-03 20:39 39.46339 9.00871 6230 ft 245 kts 216°
2026-05-03 20:39 39.44954 8.99563 5777 ft 242 kts 216°
2026-05-03 20:40 39.43615 8.98303 5268 ft 241 kts 216°
2026-05-03 20:40 39.42259 8.97028 4756 ft 240 kts 216°
2026-05-03 20:40 39.40913 8.95764 4273 ft 237 kts 215°
2026-05-03 20:40 39.39601 8.94532 3905 ft 229 kts 215°
2026-05-03 20:41 39.38337 8.93344 3559 ft 217 kts 215°
2026-05-03 20:41 39.37042 8.92593 3186 ft 197 kts 182°
2026-05-03 20:41 39.35817 8.93059 2917 ft 182 kts 144°
2026-05-03 20:41 39.34942 8.94164 2637 ft 167 kts 137°
2026-05-03 20:42 39.34141 8.95104 2381 ft 146 kts 139°
2026-05-03 20:42 39.33397 8.95910 2122 ft 134 kts 140°
2026-05-03 20:42 39.32714 8.96673 1884 ft 127 kts 138°
2026-05-03 20:42 39.32054 8.97415 1688 ft 125 kts 139°
2026-05-03 20:43 39.31405 8.98154 1506 ft 124 kts 138°
2026-05-03 20:43 39.30761 8.98901 1348 ft 125 kts 137°
2026-05-03 20:43 39.30118 8.99655 1182 ft 125 kts 138°
2026-05-03 20:43 39.29470 9.00410 1036 ft 126 kts 138°
2026-05-03 20:44 39.28817 9.01161 856 ft 126 kts 139°
2026-05-03 20:44 39.28168 9.01921 670 ft 126 kts 139°
2026-05-03 20:44 39.27522 9.02675 482 ft 125 kts 140°
2026-05-03 20:44 39.26893 9.03406 300 ft 122 kts 139°
2026-05-03 20:45 39.26261 9.04133 97 ft 121 kts 140°
2026-05-03 20:45 39.25660 9.04833 17 ft 101 kts 137°
2026-05-03 20:45 39.25329 9.05217 14 ft 40 kts 138°
2026-05-03 20:45 39.25313 9.05320 14 ft 10 kts 43°
2026-05-03 20:46 39.25359 9.05386 15 ft 10 kts 47°
2026-05-03 20:46 39.25399 9.05461 15 ft 10 kts 75°
2026-05-03 20:46 39.25393 9.05556 17 ft 11 kts 99°
2026-05-03 20:46 39.25347 9.05657 15 ft 16 kts 136°
2026-05-03 20:47 39.25255 9.05762 15 ft 20 kts 139°
2026-05-03 20:47 39.25148 9.05885 15 ft 21 kts 135°
2026-05-03 20:47 39.25078 9.05984 15 ft 9 kts 138°
2026-05-03 20:47 39.25040 9.05967 15 ft 3 kts 231°
2026-05-03 20:48 39.25029 9.05953 15 ft 0 kts 226°
2026-05-03 20:48 39.25029 9.05952 15 ft 0 kts 226°